Change the Weather History Date:

Thursday, February 20, 2014

  Actual Average (KJSV) Record (KJSV)
Temperature  
Mean Temperature 53 °F -  
Max Temperature 71 °F 59 °F 81 °F (1981)
Min Temperature 35 °F 32 °F 6 °F (1978)
Degree Days  
Heating Degree Days 12    
Growing Degree Days 3 (Base 50)    
Moisture  
Dew Point 37 °F    
Average Humidity 49    
Maximum Humidity 82    
Minimum Humidity 23    
Precipitation  
Precipitation 0.00 in - - ()
Sea Level Pressure  
Sea Level Pressure 29.76 in    
Wind  
Wind Speed 17 mph (WSW)    
Max Wind Speed 31 mph    
Max Gust Speed 43 mph    
Visibility 10 miles    
Events      
Averages and records for this station are not official NWS values.
T = Trace of Precipitation, MM = Missing Value Source: NWS Daily Summary

Daily Weather History Graph

Daily Weather History Graph

Search for Another Location

Airport or City:

Trip Planner

Search our weather history database for the weather conditions in past years. The results will help you decide how hot, cold, wet, or windy it might be!

Date:

Astronomy

Feb. 20, 2014 Rise Set
Actual Time 7:01 AM CST 6:07 PM CST
Civil Twilight 6:35 AM CST 6:33 PM CST
Nautical Twilight 6:05 AM CST 7:03 PM CST
Astronomical Twilight 5:36 AM CST 7:32 PM CST
Moon 11:48 PM CST (2/20) 9:57 AM CST (2/20)
Length of Visible Light 11h 58m
Length of Day
11h 06m
Waning Gibbous, 70% of the Moon is Illuminated
Feb 20
Waning Gibbous
Feb 22
Last Quarter
Mar 1
New
Mar 8
First Quarter
Mar 16
Full

Hourly Weather History & Observations

Time (CST) Temp. Windchill Dew Point Humidity Pressure Visibility Wind Dir Wind Speed Gust Speed Precip Events Conditions
12:15 AM 60.8 °F - 55.4 °F 82% 29.62 in 9.0 mi SE 10.4 mph - N/A   Overcast
12:35 AM 60.8 °F - 55.4 °F 82% 29.61 in 8.0 mi SE 6.9 mph - N/A   Overcast
12:55 AM 66.2 °F - 55.4 °F 68% 29.61 in 10.0 mi South 8.1 mph 16.1 mph N/A   Overcast
1:15 AM 68.0 °F - 55.4 °F 64% 29.59 in 10.0 mi SSW 15.0 mph 31.1 mph N/A   Overcast
1:35 AM 68.0 °F - 55.4 °F 64% 29.59 in 10.0 mi SSW 16.1 mph 27.6 mph N/A   Overcast
1:55 AM 68.0 °F - 55.4 °F 64% 29.59 in 10.0 mi SSW 18.4 mph 26.5 mph N/A   Overcast
2:15 AM 68.0 °F - 55.4 °F 64% 29.58 in 10.0 mi SSW 15.0 mph 23.0 mph N/A   Overcast
2:35 AM 68.0 °F - 55.4 °F 64% 29.57 in 10.0 mi SSW 18.4 mph 27.6 mph N/A   Overcast
2:55 AM 68.0 °F - 55.4 °F 64% 29.56 in 10.0 mi SSW 23.0 mph 28.8 mph N/A   Overcast
3:15 AM 68.0 °F - 55.4 °F 64% 29.55 in 10.0 mi SSW 19.6 mph 31.1 mph N/A   Overcast
3:35 AM 66.2 °F - 55.4 °F 68% 29.54 in 10.0 mi SSW 21.9 mph 31.1 mph N/A   Overcast
3:55 AM 66.2 °F - 57.2 °F 73% 29.53 in 10.0 mi SSW 20.7 mph 31.1 mph N/A   Overcast
4:15 AM 66.2 °F - 55.4 °F 68% 29.52 in 10.0 mi SSW 21.9 mph 34.5 mph N/A   Overcast
4:35 AM 66.2 °F - 55.4 °F 68% 29.51 in 10.0 mi SSW 26.5 mph 34.5 mph N/A   Overcast
4:55 AM 66.2 °F - 55.4 °F 68% 29.51 in 10.0 mi SSW 24.2 mph 32.2 mph N/A   Overcast
5:15 AM 66.2 °F - 55.4 °F 68% 29.51 in 10.0 mi SSW 23.0 mph 31.1 mph N/A   Overcast
5:35 AM 66.2 °F - 55.4 °F 68% 29.50 in 10.0 mi SSW 20.7 mph 34.5 mph N/A   Overcast
5:55 AM 66.2 °F - 55.4 °F 68% 29.50 in 10.0 mi SSW 20.7 mph 31.1 mph N/A   Mostly Cloudy
6:15 AM 66.2 °F - 55.4 °F 68% 29.50 in 10.0 mi SSW 16.1 mph 31.1 mph N/A   Mostly Cloudy
6:35 AM 66.2 °F - 55.4 °F 68% 29.50 in 10.0 mi SSW 24.2 mph 38.0 mph N/A   Mostly Cloudy
6:55 AM 66.2 °F - 55.4 °F 68% 29.51 in 10.0 mi SSW 24.2 mph 40.3 mph N/A   Mostly Cloudy
7:15 AM 66.2 °F - 55.4 °F 68% 29.52 in 10.0 mi SW 26.5 mph 34.5 mph N/A   Mostly Cloudy
7:35 AM 66.2 °F - 55.4 °F 68% 29.53 in 10.0 mi SSW 20.7 mph 32.2 mph N/A   Mostly Cloudy
7:55 AM 66.2 °F - 55.4 °F 68% 29.53 in 10.0 mi SSW 23.0 mph 34.5 mph N/A   Scattered Clouds
8:15 AM 66.2 °F - 55.4 °F 68% 29.53 in 9.0 mi SSW 21.9 mph 32.2 mph N/A   Clear
8:35 AM 66.2 °F - 53.6 °F 64% 29.54 in 9.0 mi SW 24.2 mph 33.4 mph N/A   Clear
8:55 AM 66.2 °F - 55.4 °F 68% 29.55 in 9.0 mi SW 26.5 mph 39.1 mph N/A   Partly Cloudy
9:15 AM 68.0 °F - 53.6 °F 60% 29.56 in 8.0 mi SW 24.2 mph 33.4 mph N/A   Partly Cloudy
9:35 AM 69.8 °F - 53.6 °F 56% 29.57 in 9.0 mi WSW 31.1 mph 39.1 mph N/A   Partly Cloudy
9:55 AM 69.8 °F - 53.6 °F 56% 29.59 in 7.0 mi WSW 27.6 mph 39.1 mph N/A   Partly Cloudy
10:15 AM 71.6 °F - 46.4 °F 41% 29.61 in 9.0 mi West 31.1 mph 40.3 mph N/A   Scattered Clouds
10:35 AM 71.6 °F - 32.0 °F 23% 29.62 in 7.0 mi West 29.9 mph 42.6 mph N/A   Partly Cloudy
10:55 AM 68.0 °F - 32.0 °F 26% 29.66 in 5.0 mi West 29.9 mph 36.8 mph N/A   Haze
11:15 AM 66.2 °F - 30.2 °F 26% 29.69 in 6.0 mi West 23.0 mph 39.1 mph N/A   Haze
11:35 AM 64.4 °F - 28.4 °F 26% 29.72 in 8.0 mi West 24.2 mph 38.0 mph N/A   Clear
11:55 AM 62.6 °F - 28.4 °F 27% 29.74 in 9.0 mi West 24.2 mph 35.7 mph N/A   Clear
12:15 PM 62.6 °F - 30.2 °F 30% 29.76 in 8.0 mi WNW 26.5 mph 36.8 mph N/A   Clear
12:35 PM 59.0 °F - 32.0 °F 36% 29.77 in 9.0 mi WNW 23.0 mph 39.1 mph N/A   Clear
12:55 PM 59.0 °F - 32.0 °F 36% 29.79 in 10.0 mi WNW 20.7 mph 33.4 mph N/A   Partly Cloudy
1:15 PM 57.2 °F - 28.4 °F 33% 29.81 in 10.0 mi WNW 26.5 mph 35.7 mph N/A   Scattered Clouds
1:35 PM 57.2 °F - 28.4 °F 33% 29.83 in 10.0 mi NW 24.2 mph 34.5 mph N/A   Mostly Cloudy
1:55 PM 55.4 °F - 28.4 °F 36% 29.84 in 10.0 mi WNW 21.9 mph 31.1 mph N/A   Scattered Clouds
2:15 PM 55.4 °F - 26.6 °F 33% 29.85 in 10.0 mi WNW 20.7 mph 32.2 mph N/A   Scattered Clouds
2:35 PM 55.4 °F - 24.8 °F 31% 29.87 in 10.0 mi NW 26.5 mph 34.5 mph N/A   Partly Cloudy
2:55 PM 53.6 °F - 24.8 °F 33% 29.88 in 10.0 mi NW 19.6 mph 31.1 mph N/A   Partly Cloudy
3:15 PM 55.4 °F - 24.8 °F 31% 29.89 in 10.0 mi NNW 20.7 mph 32.2 mph N/A   Clear
3:35 PM 55.4 °F - 23.0 °F 29% 29.89 in 10.0 mi NW 24.2 mph 34.5 mph N/A   Clear
3:55 PM 53.6 °F - 23.0 °F 30% 29.90 in 10.0 mi NW 21.9 mph 29.9 mph N/A   Partly Cloudy
4:15 PM 53.6 °F - 23.0 °F 30% 29.91 in 10.0 mi NNW 19.6 mph 26.5 mph N/A   Scattered Clouds
4:35 PM 53.6 °F - 23.0 °F 30% 29.92 in 10.0 mi NW 15.0 mph 27.6 mph N/A   Partly Cloudy
4:55 PM 53.6 °F - 23.0 °F 30% 29.92 in 10.0 mi NNW 17.3 mph 28.8 mph N/A   Partly Cloudy
5:15 PM 53.6 °F - 23.0 °F 30% 29.93 in 10.0 mi NW 16.1 mph 27.6 mph N/A   Clear
5:35 PM 51.8 °F - 19.4 °F 28% 29.94 in 10.0 mi NNW 12.7 mph 25.3 mph N/A   Unknown
5:55 PM 50.0 °F - 19.4 °F 30% 29.95 in 10.0 mi NNW 10.4 mph - N/A   Unknown
6:15 PM 48.2 °F - 21.2 °F 34% 29.96 in 10.0 mi NNW 6.9 mph - N/A   Unknown
6:35 PM 46.4 °F 44.3 °F 21.2 °F 37% 29.97 in 10.0 mi NW 4.6 mph - N/A   Unknown
6:55 PM 44.6 °F 43.1 °F 23.0 °F 43% 29.98 in 10.0 mi West 3.5 mph - N/A   Unknown
7:15 PM 44.6 °F 42.2 °F 23.0 °F 43% 29.99 in 10.0 mi WSW 4.6 mph - N/A   Unknown
7:35 PM 41.0 °F 37.1 °F 23.0 °F 49% 29.99 in 10.0 mi SW 5.8 mph - N/A   Unknown
7:55 PM 41.0 °F 37.1 °F 23.0 °F 49% 30.01 in 10.0 mi WSW 5.8 mph - N/A   Unknown
8:15 PM 39.2 °F 35.0 °F 23.0 °F 52% 30.02 in 10.0 mi WSW 5.8 mph - N/A   Unknown
8:35 PM 41.0 °F 35.8 °F 23.0 °F 49% 30.03 in 10.0 mi WNW 8.1 mph - N/A   Unknown
8:55 PM 42.8 °F 38.6 °F 19.4 °F 39% 30.02 in 10.0 mi West 6.9 mph - N/A   Unknown
9:15 PM 41.0 °F 37.1 °F 17.6 °F 39% 30.03 in 10.0 mi West 5.8 mph - N/A   Unknown
9:35 PM 41.0 °F 37.1 °F 17.6 °F 39% 30.03 in 10.0 mi West 5.8 mph - N/A   Unknown
9:55 PM 39.2 °F 34.2 °F 23.0 °F 52% 30.03 in 10.0 mi WSW 6.9 mph - N/A   Unknown
10:15 PM 39.2 °F 35.0 °F 21.2 °F 49% 30.03 in 10.0 mi WSW 5.8 mph - N/A   Unknown
10:35 PM 37.4 °F 32.8 °F 21.2 °F 52% 30.04 in 10.0 mi WSW 5.8 mph - N/A   Unknown
10:55 PM 35.6 °F 31.7 °F 21.2 °F 56% 30.05 in 10.0 mi WNW 4.6 mph - N/A   Unknown
11:15 PM 39.2 °F 33.6 °F 17.6 °F 42% 30.05 in 10.0 mi West 8.1 mph - N/A   Unknown
11:35 PM 37.4 °F 34.9 °F 17.6 °F 45% 30.06 in 10.0 mi WNW 3.5 mph - N/A   Unknown
11:55 PM 37.4 °F 32.8 °F 15.8 °F 41% 30.06 in 10.0 mi WSW 5.8 mph - N/A   Unknown